Hourly Data Report for October 01, 2014

All times are specified in Local Standard Time (LST). Add 1 hour to adjust for Daylight Saving Time where and when it is observed.

KITCHENER/WATERLOO
ONTARIO

43°27'39.000" N
80°22'43.000" W
321.60 m
6144239
71368
YKF

Download Data

Hourly Data (October 2014)
Hourly Data Report for October 1, 2014
Temp Definition
°C
Dew Point Temp Definition
°C
Rel Hum Definition
%
Wind Dir Definition
10's deg

Wind Spd Definition
km/h
Visibility Definition
km
Stn Press Definition
kPa
Hmdx Definition


Wind Chill Definition


Weather Definition


TIME
00:00 Legend Double Dagger 14.6 14.1 97 8 13 3.6 97.82     Fog
01:00 Legend Double Dagger 14.6 13.7 94 10 15 4.8 97.85     Fog
02:00 Legend Double Dagger 14.5 13.6 94 8 17 4.8 97.87     Fog
03:00 Legend Double Dagger 13.9 12.8 93 8 11 9.7 97.86     Fog
04:00 Legend Double Dagger 13.8 12.9 94 8 9 4.8 97.87     Fog
05:00 Legend Double Dagger 13.7 12.6 93 9 11 4.0 97.90     Fog
06:00 Legend Double Dagger 13.4 12.3 93 8 13 6.4 97.94     Fog
07:00 Legend Double Dagger 13.3 12.2 93 7 13 8.1 97.98     Fog
08:00 Legend Double Dagger 13.3 12.0 92 7 15 6.4 98.03     Fog
09:00 Legend Double Dagger 13.5 12.4 93 8 13 4.8 98.07     Fog
10:00 Legend Double Dagger 14.1 12.8 92 8 11 8.1 98.08     Fog
11:00 Legend Double Dagger 14.4 13.0 91 11 13 9.7 98.09     Fog
12:00 Legend Double Dagger 14.5 12.9 90 10 13 16.1 98.09     LegendNANA
13:00 Legend Double Dagger 15.6 13.3 86 10 11 16.1 98.06     LegendNANA
14:00 Legend Double Dagger 15.6 13.4 87 13 8 16.1 98.03     LegendNANA
15:00 Legend Double Dagger 15.3 13.9 91 10 9 11.3 98.01     LegendNANA
16:00 Legend Double Dagger 15.7 14.2 91 8 9 16.1 97.99     LegendNANA
17:00 Legend Double Dagger 15.3 13.7 90 9 11 16.1 97.99     LegendNANA
18:00 Legend Double Dagger 14.9 13.6 92 10 13 14.5 98.01     LegendNANA
19:00 Legend Double Dagger 14.6 13.5 93 8 11 9.7 98.01     Fog
20:00 Legend Double Dagger 14.4 13.3 93 5 5 8.1 98.07     Fog
21:00 Legend Double Dagger 14.4 13.5 94 9 9 4.8 98.07     Fog
22:00 Legend Double Dagger 14.3 13.4 94 9 9 4.8 98.08     Fog
23:00 Legend Double Dagger 14.3 13.4 94 9 9 4.8 98.06     Fog

Notes on Data Quality.

Legend

  • E = Estimated
  • M = Missing
  • NA = Not Available
  • ‡ = Partner data that is not subject to review by the National Climate Archives
Date modified: